Location: Mountain Grove
(34.0887°N, 86.6172°W)
Time: 20:45:59
(UTC+00:00)

CZ-2C R/B - Pass Details

Date: 14 July 2020
Orbit: 503 x 567 km, 97.7° (Epoch: 08 August)

Event Time Altitude Azimuth Distance (km) Brightness Sun altitude
Rises 08:35:54 0° 22° (NNE) 2,768 7.6 -22.1°
Reaches altitude 10° 08:38:12 10° 31° (NNE) 1,865 6.6 -21.8°
Maximum altitude 08:41:55 35° 98° (E) 925 4.2 -21.3°
Enters shadow 08:43:48 22° 147° (SSE) 1,233 4.4 -21.0°
